This is the latest recevied weather packets stored in our database for station/object KB1JLI. If no packets are shown the sender has not sent any weather packets the latest 10 day(s).
| Time | Temp. | Humidity | Pressure | Rain* | Wind** | Luminosity | Snow |
|---|---|---|---|---|---|---|---|
| 1777466235 | 7.22° C | 95% | 1019 hPa | 0 mm | - | 61 W/m² | - |
| 1777465930 | 7.78° C | 95% | 1018.8 hPa | 0 mm | - | 65 W/m² | - |
| 1777465627 | 7.22° C | 95% | 1018.9 hPa | 0 mm | - | 70 W/m² | - |
| 1777465322 | 7.22° C | 95% | 1019.1 hPa | 0 mm | - | 55 W/m² | - |
| 1777465016 | 7.22° C | 95% | 1018.7 hPa | 0 mm | - | 57 W/m² | - |
| 1777464711 | 7.22° C | 95% | 1019 hPa | 0 mm | - | 58 W/m² | - |
| 1777464409 | 7.22° C | 95% | 1018.6 hPa | 0 mm | - | 72 W/m² | - |
| 1777463803 | 7.22° C | 94% | 1018.9 hPa | 0 mm | - | 51 W/m² | - |
| 1777462587 | 7.22° C | 93% | 1018.8 hPa | 0 mm | - | 44 W/m² | - |
| 1777461676 | 6.67° C | 93% | 1018.5 hPa | 0 mm | - | 40 W/m² | - |
| 1777461376 | 6.67° C | 93% | 1018.4 hPa | 0 mm | - | 38 W/m² | - |
| 1777461072 | 6.67° C | 92% | 1018.6 hPa | 0 mm | - | 32 W/m² | - |
| 1777460768 | 6.67° C | 92% | 1018.2 hPa | 0 mm | - | 25 W/m² | - |
| 1777458949 | 6.67° C | 92% | 1018.4 hPa | 0 mm | - | 12 W/m² | - |
| 1777458038 | 6.67° C | 91% | 1018.1 hPa | 0 mm | - | 9 W/m² | - |
| 1777457734 | 6.67° C | 91% | 1018 hPa | 0 mm | - | 9 W/m² | - |
| 1777457433 | 6.67° C | 90% | 1017.9 hPa | 0 mm | - | 8 W/m² | - |
| 1777457129 | 6.67° C | 89% | 1017.7 hPa | 0 mm | - | 6 W/m² | - |
| 1777456520 | 6.67° C | 88% | 1017.8 hPa | 0 mm | - | 3 W/m² | - |
| 1777455609 | 6.67° C | 87% | 1017.8 hPa | 0 mm | - | 1 W/m² | - |
| 1777455305 | 6.67° C | 87% | 1017.6 hPa | 0 mm | - | 0 W/m² | - |
| 1777455003 | 6.67° C | 86% | 1017.8 hPa | 0 mm | - | 0 W/m² | - |
| 1777454699 | 6.67° C | 86% | 1017.7 hPa | 0 mm | - | 0 W/m² | - |
| 1777454394 | 6.67° C | 86% | 1017.6 hPa | 0 mm | - | 0 W/m² | - |
| 1777454092 | 6.67° C | 86% | 1017.6 hPa | 0 mm | - | 0 W/m² | - |
* Rain latest hour (hover to see other rain measurements)
** Current wind speed in m/s (hover to see current wind gust speed)